Regional Weather Roundup
Issued by NWS Green Bay, WI

Home | Current Version | Previous Version | Graphics & Text | Print | Product List | Glossary Off
Versions: 1 2 3 4 5 6 7 8 9 10 11 12 13 14 15 16 17 18 19 20 21 22 23 24 25 26 27 28 29 30 31 32 33 34 35 36 37 38 39 40 41 42 43 44 45 46 47 48 49 50

000
ASUS43 KGRB 022259
RWRGRB

NORTH-CENTRAL AND NORTHEAST WISCONSIN REGIONAL WEATHER ROUNDUP
NATIONAL WEATHER SERVICE GREEN BAY WI
500 PM CST MON MAR 02 2015

WIZ005-009-010>012-018-019-030000-
NORTH CENTRAL WISCONSIN

CITY           SKY/WX    TMP DP  RH WIND       PRES   REMARKS
IRONWOOD       CLEAR     28   1  31 S10       30.19F
MANITOWISH WTR NOT AVBL
ARBOR VITAE    NOT AVBL
EAGLE RIVER    NOT AVBL
LAND O LAKES   NOT AVBL
RHINELANDER    CLEAR     24   2  38 SW7       30.23F
PHILLIPS       NOT AVBL
ANTIGO         NOT AVBL
TOMAHAWK       NOT AVBL
MERRILL        NOT AVBL
$$

WIZ013-073-030000-
NORTHEAST WISCONSIN

CITY           SKY/WX    TMP DP  RH WIND       PRES   REMARKS
IRON MOUNTAIN  CLEAR     28   2  32 S6        30.25F
MARINETTE      CLEAR     25   9  50 SW14      30.33F
$$

WIZ017-030-035>037-045-030000-
CENTRAL WISCONSIN

CITY           SKY/WX    TMP DP  RH WIND       PRES   REMARKS
MEDFORD        NOT AVBL
WAUSAU         CLEAR     23   2  40 SW5       30.28F
MOSINEE        CLEAR     21   7  53 SW3       30.30F
MARSHFIELD     CLEAR     22   7  52 E5        30.29F
WISC RAPIDS    PTCLDY    25   3  38 SW6       30.32F
STEVENS POINT  NOT AVBL
WAUPACA        NOT AVBL
SHAWANO        NOT AVBL
CLINTONVILLE   NOT AVBL
$$

WIZ038-039-048-051-030000-
FOX VALLEY

CITY           SKY/WX    TMP DP  RH WIND       PRES   REMARKS
NWS GREEN BAY  CLEAR     26  12  55 S7        30.35F
APPLETON       PTCLDY    25  10  54 SE7       30.34F
OSHKOSH        PTCLDY    24  11  57 S6        30.35F
FOND DU LAC    MOCLDY    27   8  44 S9        30.35F
$$

WIZ022-050-052-030000-
EAST CENTRAL WISCONSIN

CITY           SKY/WX    TMP DP  RH WIND       PRES   REMARKS
STURGEON BAY   CLEAR     25   9  50 S8        30.37F
MANITOWOC      NOT AVBL
SHEBOYGAN      PTCLDY    24  13  62 S9        30.37F
$$

LMZ563-521-522-541>543-030000-
LAKESHORE

STATION/POSITION TIME  TEMP    WIND        PRES    VSBY  WAVE
                       AIR SEA DIR/SP/G                  HT/PER
                 (UTC) (F)     (DEG/KT/KT) (MB)    (MI)  (FT/S)
SHEBOYGAN LKSHOR 2200   25     180/ 12/ 14 1030.6F
KEWAUNEE LKSHORE 2200   26     190/  6/ 11 1027.5F
TWO RIVERS CG    2200   24                 1030.7      6   0
NORTHPORT PIER   2200   26     170/  7/ 12 1027.8F
SISTER BAY LKSHO 2200   33     200/ 12/ 14   N/A
STURGEON BAY CG  2200   25      20/  9       N/A       6   1
CHAMBERS ISLAND  2200   25     180/  4/ 10 1028.1F
MENOMINEE LKSHOR 2200   24     170/ 12     1028.3F
$$


USA.gov is the U.S. government's official web portal to all federal, state and local government web resources and services.